NOAA 16 DEB, 42335

Orbit data source: Space-Track

NOAA 16 DEB, 42335 is space debris in SSO originally from a launch on Thu, 21 Sep 2000 UTC launched from the Air Force Western Test Range (AFWTR). Debris objects in space refer to the collection of defunct objects orbiting the Earth. Examples of debris include non-operational satellites, rocket bodies, and fragments generated from explosions, collisions, or faulty payload assembly.

Loading next visibility...
Identifier
42335, 2000-055QB
Orbit
SSO
Country
Flag of USUS
Related business
Manufacturer
Unknown
Mission
Spacecraft
Bus & Motor
Unknown
Mass
Unknown
Launch date (UTC)
2000-09-21 (25 years ago)
Launch vehicle
Unknown
Launch site
Air Force Western Test Range (AFWTR)
Object type
Payload
Rocket body
Debris
Shape & HBR
Unknown shape, 0.1 m
Radar Cross Section
Small (<0.1 m²)

Expand to show TLE details & history
Last TLE update: 2 days ago

TLE from 2 days ago
0 NOAA 16 DEB
1 42335U 00055QB  25311.45143828  .00007538  00000-0  27103-2 0  9992
2 42335  98.5733   7.0789 0026649 132.1953 228.1500 14.33851922501402
Epoch: 2025-11-07T10:50Z
TLE epoch observation values (Epoch: 2025-11-07T10:50:04.267Z)
Latitude
-0.00002°
Longitude
157.66591°
Altitude
794.578 km
Speed
7.45 km/s
True Right ascension
00h 28m 18s
True Declination
0° 00' 00"
Sunlit
Object was in full shadow at epoch
Visualization orbit readout
Latitude
Unknown
Longitude
Unknown
Altitude
Unknown
Speed
Unknown
Apparent Right ascension
Unknown
Apparent Declination
Unknown
Sunlit
N/A
Visualization observer readout
Local Sidereal Time
20:38:39
Azimuth
Unknown
Elevation
Unknown
Doppler factor
Unknown
Orbital elements
Apogee altitude
795.083 km
Perigee altitude
756.953 km
Semi-major axis
7,154.155 km
Eccentricity
0.00266
Inclination
98.5733°
RAAN
7.0789°
Arg. of periapsis
132.1953°
True anomaly
227.92303°
Mean anomaly
228.15°
Eccentric anomaly
228.03647°
Mean motion
3.58679 °/min
Orbital period
100.37 mins
BSTAR
0.0027103
Loading maneuver chart data...
Computing Atmospheric mass density...
Loading historical data...
Loading historical data...
Loading historical data...
Loading historical data...
Loading historical data...
Loading historical data...
Loading historical data...

Documentation

Showing up to 5 results
|